Tracking 17938 objects as of 20-February-2017
HD Live streaming from Space Station
objects crossing your sky now

EGG

Track EGG now!
10-day predictions
EGG is classified as:


NORAD ID: 41933
Int'l Code: 1998-067KV
Perigee: 402.6 km
Apogee: 412.2 km
Inclination: 51.6 °
Period: 92.6 minutes
Semi major axis: 6778 km
RCS: Unknown
Launch date: November 20, 1998
Source: Japan (JPN)
Launch site: TYURATAM MISSILE AND SPACE COMPLEX (TTMTR)
Uplink (MHz):
Downlink (MHz):
Beacon (MHz):
Mode:
Call sign:
Status:

Your satellite tracking list
Your tracking list is empty





NASA's NSSDC Master Catalog

Two Line Element Set (TLE):
1 41933U 98067KV  17050.85459832  .00015526  00000-0  22810-3 0  9992
2 41933  51.6414 262.9652 0007090 186.5169 173.5735 15.55659726  5251
Source of the keplerian elements: AFSPC